Location: Goettingen
(51.5300°N, 9.9433°E)
Time: 06:35:56
(UTC+01:00)

ISS - Pass Details

Date: 25 November 2021
Orbit: 417 x 422 km, 51.6° (Epoch: 04 December)

Event Time Altitude Azimuth Distance (km) Brightness Sun altitude
Rises 18:36:15 0° 256° (WSW) 2,374 1.6 -20.6°
Reaches altitude 10° 18:38:20 10° 256° (WSW) 1,511 0.2 -20.9°
Enters shadow 18:41:24 69° 236° (WSW) 457 -3.5 -21.4°
